Location: Lake Arresoe
(56.0000°N, 12.5000°E)
Time: 10:34:10
(UTC+02:00)

CZ-3 Stage 3 - Visible Passes

Search period start: 14 August 2020 00:00
Search period end: 24 August 2020 00:00
Orbit: 423 x 34767 km, 31.2° (Epoch: 12 August)

Date Brightness Start Highest point End Pass type
(mag) Time Alt. Az. Time Alt. Az. Time Alt. Az.
14 Aug 11.4 03:03:26 10° ENE 03:58:28 11° ENE 04:42:27 10° ENE visible
15 Aug 7.9 04:20:32 10° S 09:52:28 61° S 13:27:50 10° SSE visible
16 Aug 8.7 01:27:56 10° ESE 07:22:05 41° ESE 09:40:01 10° ESE visible
17 Aug 11.4 02:58:53 10° ENE 03:45:39 11° ENE 04:24:16 10° ENE visible
18 Aug 7.8 04:09:26 10° S 09:38:03 61° S 13:17:03 10° SSE visible
19 Aug 8.6 01:15:04 10° ESE 07:09:35 41° ESE 09:28:57 10° ESE visible
20 Aug 11.3 02:56:51 10° ENE 03:32:50 10° ENE 04:03:51 10° ENE visible
21 Aug 7.8 03:58:23 10° S 09:23:45 61° S 13:06:16 10° SSE visible
22 Aug 8.6 01:02:17 10° ESE 06:57:07 40° ESE 09:17:51 10° ESE visible
23 Aug 11.3 03:00:42 10° ENE 03:20:02 10° ENE 03:37:50 10° ENE visible
